Location: Earls Croome
(52.0667°N, 2.2000°W)
Time: 21:45:32
(UTC+00:00)

COSMOS 2455 - Pass Details

Date: 01 March 2020
Orbit: 901 x 909 km, 67.2° (Epoch: 05 April)

Event Time Altitude Azimuth Distance (km) Brightness Sun altitude
Exits shadow 00:29:48 14° 27° (NNE) 2,316 5.4 -45.4°
Drops below altitude 10° 00:31:04 10° 37° (NE) 2,602 5.7 -45.4°
Sets 00:34:20 0° 55° (NE) 3,545 6.3 -45.3°
